Location: *
(24.1434°N, 56.8729°E)
Time: 05:52:48
(UTC+00:00)

IRIDIUM 103 - Pass Details

Date: 09 April 2020
Orbit: 776 x 779 km, 86.4° (Epoch: 05 June)

Event Time Altitude Azimuth Distance (km) Brightness Sun altitude
Rises 15:42:00 0° 356° (N) 3,260 7.8 -16.4°
Reaches altitude 10° 15:44:22 10° 355° (N) 2,330 7.1 -16.9°
Maximum altitude 15:49:34 77° 271° (W) 801 4.5 -18.1°
Drops below altitude 10° 15:54:45 10° 185° (S) 2,318 6.7 -19.2°
Sets 15:57:05 0° 184° (S) 3,243 7.4 -19.7°
